Weather in Privolnoye

Russia / Kaliningrad Oblast     54°43′29″N   21°54′37″E
temp.,
°C
wind,
m/s
gust,
m/s
humid.,
%
clouds,
%
prec.,
mm/h
press.,
hPa
HPBL,
m
15 may, sat
sat1523:00+7nw229211 0.0 100530
02:00+6nw119080 0.0 100510
05:00+6w22935 0.0 100617
08:00+12w227612 0.0 1006296
11:00+15sw2268100 0.0 1007773
14:00+16wsw346995 0.0 1007973
17:00+15w668276 0.7 1007820
20:00+11wnw359583 0.8 1008193
16 may, sun
sun1623:00+8wsw1195100 0.0 100910
02:00+8sse229728 0.0 100813
05:00+7sse3394100 0.0 100851
08:00+13se3581100 0.0 1008266
11:00+17s4568100 0.3 1008977
14:00+16sse488056 2.4 1007602
17:00+15se4988100 2.0 1005365
20:00+14ese41092100 3.4 1004260
17 may, mon
mon1723:00+13se3896100 1.9 1003233
02:00+11w4798100 2.2 1003436
05:00+10wsw3798100 1.1 1004308
08:00+13ssw358633 1.3 1006542
11:00+17ssw456926 0.3 10051253
14:00+18ssw45666 1.5 10051205
17:00+17ssw3472100 1.8 1005763
20:00+13sw228792 3.0 100432
18 may, tue
tue1823:00+11wsw2292100 0.2 100420
02:00+11w1190100 0.2 100312
05:00+11wnw2497100 0.1 1002121
08:00+12w1194100 0.3 1002330
11:00+10wsw5996100 2.4 1003427
14:00+10wsw3696100 4.6 1003445
17:00+10w61191100 0.1 1003698
20:00+9w6138964 0.1 1004671
19 may, wed
wed1923:00+8wnw5128948 0.0 1005525
02:00+5wsw4109710 0.0 1006201
05:00+6wsw4109989 0.0 1006309
08:00+10w71391100 0.1 1006846
11:00+12w688187 0.4 1009966
14:00+14wnw796376 0.9 10091747
17:00+13wnw610685 0.1 10101423
20:00+9w35845 0.1 1011110